EW8555 Weather Reports


Display with metric or nautical units.
time (UTC)temp
F
wind
direction
speed
MPH
gust
MPH
rain 1hr
in
rain 24hr
in
rain mn
in
humidity
%
barometer
mb
20260509234521 43 135 0.0 0.0 0.00 0.00 0.00 92 1016.1
20260509233016 43 135 0.0 0.0 0.00 0.00 0.00 92 1016.3
20260509231513 44 135 0.0 0.0 0.00 0.00 0.00 92 1016.4
20260509230011 44 135 0.0 0.0 0.00 0.00 0.00 91 1016.6
20260509224509 45 135 0.0 0.0 0.00 0.00 0.00 91 1016.7
20260509223007 45 135 0.0 0.0 0.00 0.00 0.00 90 1016.7
20260509221504 46 135 0.0 0.0 0.00 0.00 0.00 89 1016.7
20260509220001 46 135 0.0 0.0 0.00 0.00 0.00 88 1016.8
20260509214609 47 135 0.0 0.0 0.00 0.00 0.00 87 1016.8
20260509213057 47 135 0.0 0.0 0.00 0.00 0.00 87 1016.9
20260509211559 48 135 0.0 0.0 0.00 0.00 0.00 86 1016.7
20260509210113 48 135 0.0 0.0 0.00 0.00 0.00 86 1016.9
20260509204558 49 135 0.0 1.0 0.00 0.00 0.00 84 1016.9
20260509203055 50 135 0.0 2.0 0.00 0.00 0.00 82 1017.0
20260509201559 51 135 0.0 1.0 0.00 0.00 0.00 80 1017.0
20260509194552 53 135 0.0 1.0 0.00 0.00 0.00 77 1017.0
20260509193052 54 135 0.0 1.0 0.00 0.00 0.00 72 1016.8
20260509191556 56 135 0.0 1.0 0.00 0.00 0.00 70 1016.8
20260509190105 56 135 1.0 3.0 0.00 0.00 0.00 67 1016.7
20260509184551 57 133 1.0 3.0 0.00 0.00 0.00 66 1016.5
20260509183049 58 133 1.0 3.0 0.00 0.00 0.00 64 1016.4
20260509181550 58 133 1.0 3.0 0.00 0.00 0.00 62 1016.5
20260509180052 59 133 1.0 3.0 0.00 0.00 0.00 61 1016.6
20260509174546 59 133 2.0 5.0 0.00 0.00 0.00 59 1016.6
20260509173048 60 161 3.0 11.0 0.00 0.00 0.00 57 1016.5
20260509171547 60 91 4.0 11.0 0.00 0.00 0.00 55 1016.6
20260509170044 60 194 1.0 6.0 0.00 0.00 0.00 54 1016.7
20260509164550 60 85 2.0 6.0 0.00 0.00 0.00 57 1016.8
20260509163042 60 84 3.0 7.0 0.00 0.00 0.00 57 1016.9
20260509161541 60 136 3.0 7.0 0.00 0.00 0.00 56 1017.1
20260509160038 61 162 1.0 5.0 0.00 0.00 0.00 55 1017.2
20260509154535 60 155 2.0 6.0 0.00 0.00 0.00 57 1017.4
20260509153033 60 323 1.0 4.0 0.00 0.00 0.00 55 1017.6
20260509151536 61 185 1.0 7.0 0.00 0.00 0.00 55 1017.7
20260509124552 59 103 2.0 6.0 0.00 0.00 0.00 55 1018.7
20260509123052 60 66 1.0 3.0 0.00 0.00 0.00 56 1018.9
20260509121552 58 18 1.0 5.0 0.00 0.00 0.00 57 1019.0
20260509120048 58 74 3.0 5.0 0.00 0.00 0.00 58 1019.1
20260509114548 58 77 2.0 7.0 0.00 0.00 0.00 56 1019.2
20260509113052 58 146 1.0 7.0 0.00 0.00 0.00 55 1019.2
20260509111547 58 179 3.0 6.0 0.00 0.00 0.00 55 1019.1
20260509110047 58 57 1.0 5.0 0.00 0.00 0.00 55 1019.2
20260509104546 58 40 2.0 5.0 0.00 0.00 0.00 55 1019.3
20260509103047 58 34 3.0 9.0 0.00 0.00 0.00 54 1019.3
20260509101551 58 76 5.0 8.0 0.00 0.00 0.00 55 1019.3
20260509100043 57 101 2.0 11.0 0.00 0.00 0.00 53 1019.4
20260509094544 58 156 4.0 9.0 0.00 0.01 0.00 52 1019.4
20260509093043 58 156 5.0 10.0 0.00 0.01 0.00 52 1019.4
20260509091539 58 216 1.0 6.0 0.00 0.01 0.00 54 1019.4
20260509090036 56 133 2.0 4.0 0.00 0.01 0.00 55 1019.5
20260509084532 55 115 1.0 3.0 0.00 0.01 0.00 62 1019.6
20260509083028 54 115 1.0 3.0 0.00 0.01 0.00 78 1019.6
20260509081532 53 115 2.0 4.0 0.00 0.01 0.00 81 1019.7
20260509080026 53 81 2.0 4.0 0.00 0.01 0.00 80 1019.6
20260509074524 54 92 3.0 6.0 0.00 0.01 0.00 78 1019.5
20260509073023 54 165 2.0 5.0 0.00 0.01 0.00 80 1019.5
20260509071520 53 48 0.0 2.0 0.00 0.01 0.00 82 1019.5
20260509070017 52 111 1.0 3.0 0.00 0.01 0.00 82 1019.5
20260509064514 51 111 0.0 4.0 0.00 0.01 0.00 84 1019.5
20260509063010 51 15 1.0 3.0 0.00 0.01 0.00 85 1019.4
20260509061508 50 16 1.0 4.0 0.00 0.01 0.00 86 1019.4
20260509060010 49 331 2.0 3.0 0.00 0.01 0.00 87 1019.4
20260509054507 49 331 1.0 3.0 0.00 0.01 0.00 89 1019.4
20260509053007 49 331 1.0 3.0 0.00 0.01 0.00 91 1019.4
20260509051506 48 330 1.0 3.0 0.00 0.01 0.00 91 1019.3
20260509050004 48 330 1.0 3.0 0.00 0.01 0.00 92 1019.2
20260509044504 48 330 1.0 3.0 0.00 0.01 0.00 92 1019.1
20260509043002 48 330 0.0 2.0 0.00 0.01 0.00 92 1019.0
20260509041503 48 330 0.0 0.0 0.00 0.01 0.00 92 1018.9
20260509040001 48 330 0.0 0.0 0.00 0.01 0.00 92 1019.0
20260509034504 48 330 0.0 3.0 0.00 0.01 0.00 92 1019.0
20260509033001 48 14 0.0 0.0 0.00 0.01 0.00 92 1019.1
20260509031600 48 14 0.0 0.0 0.00 0.01 0.00 93 1019.1
20260509030059 48 14 0.0 1.0 0.00 0.01 0.00 93 1019.1
20260509024558 48 14 1.0 3.0 0.00 0.01 0.00 93 1019.1
20260509023057 49 14 0.0 2.0 0.00 0.01 0.00 92 1019.1
20260509021555 49 14 0.0 3.0 0.00 0.01 0.00 92 1019.1
20260509020053 49 14 1.0 2.0 0.00 0.01 0.00 92 1019.1
20260509014551 49 14 0.0 2.0 0.00 0.01 0.00 91 1019.0
20260509013055 49 14 0.0 3.0 0.00 0.01 0.00 91 1019.0
20260509011548 49 14 1.0 2.0 0.00 0.01 0.00 89 1019.0
20260509010045 50 14 0.0 2.0 0.00 0.01 0.00 88 1018.9
20260509004556 50 14 0.0 1.0 0.00 0.01 0.00 87 1018.8
20260509003044 50 14 0.0 2.0 0.00 0.01 0.00 86 1018.9
20260509001550 50 15 0.0 0.0 0.00 0.01 0.00 85 1019.0
20260509000043 50 15 1.0 3.0 0.00 0.01 0.00 86 1019.1